Location: Caltech
(34.1382°N, 118.1253°W)
Time: 06:04:59
(UTC-08:00)

Cosmos 1484 Rocket - Visible Passes

Search period start: 08 December 2016 00:00
Search period end: 18 December 2016 00:00
Orbit: 507 x 564 km, 97.3° (Epoch: 07 December)

Date Brightness Start Highest point End Pass type
(mag) Time Alt. Az. Time Alt. Az. Time Alt. Az.
08 Dec 5.8 05:54:58 10° NE 05:57:52 20° E 06:00:46 10° SE visible
08 Dec 2.8 18:07:39 10° S 18:11:24 74° W 18:15:07 10° NNW visible
09 Dec 5.9 05:46:41 10° NE 05:49:06 16° E 05:51:30 10° SE visible
09 Dec 2.5 17:58:56 10° SSE 18:02:40 83° ENE 18:06:24 10° N visible
10 Dec 6.2 05:38:40 10° ENE 05:40:18 12° E 05:41:58 10° ESE visible
10 Dec 2.6 17:50:16 10° SSE 17:53:57 62° ENE 17:57:38 10° N visible
11 Dec 2.9 17:41:40 10° SSE 17:45:14 46° ENE 17:48:49 10° N visible
12 Dec 3.2 17:33:08 10° SE 17:36:32 35° ENE 17:39:57 10° N visible
12 Dec 6.1 19:10:01 10° WSW 19:11:07 11° W 19:12:12 10° WNW visible
13 Dec 3.6 17:24:41 10° SE 17:27:51 27° ENE 17:31:01 10° NNE visible
13 Dec 5.8 19:00:14 10° SW 19:02:19 14° W 19:04:25 10° WNW visible
14 Dec 3.9 17:16:20 10° ESE 17:19:10 21° ENE 17:22:00 10° NNE visible
14 Dec 5.5 18:50:52 10° SW 18:53:32 19° W 18:56:12 10° NW visible
15 Dec 4.2 17:08:06 10° ESE 17:10:30 17° ENE 17:12:54 10° NNE visible
15 Dec 5.1 18:41:42 10° SSW 18:44:45 24° W 18:47:48 10° NW visible
16 Dec 4.2 06:18:49 10° NNE 06:22:33 44° E 06:26:19 10° S visible
16 Dec 4.6 18:32:40 10° SSW 18:35:59 31° W 18:39:19 10° NNW visible
17 Dec 4.8 06:10:13 10° NNE 06:13:48 34° E 06:17:23 10° SSE visible
17 Dec 4.0 18:23:43 10° S 18:27:13 41° W 18:30:45 10° NNW visible
